Theta_e
312 312 311 312 314 313 314 316 315 315 318 321 320 314 314 318 320 320 318 318 318 315 312 313 314 316 318 319 319 319 319 318 318 318 318 317 316 316 315 316 316 317 318 315 311 310 314 317 319 319 317 316 316 319 321 322 322 322 322 321 321 320 320 320 319 319 319 320 320 319 319 319 319 319 319 319 318 318 319 319 319 319 318 318 318 318 318
311 311 311 311 315 315 314 315 314 315 317 318 316 314 314 317 319 318 318 319 316 310 309 310 310 310 315 318 317 318 318 318 319 319 318 318 316 313 313 313 313 313 313 311 308 309 310 311 312 311 310 310 310 312 316 319 320 320 319 320 321 321 321 320 320 320 320 320 320 320 320 320 320 320 320 319 319 319 319 320 320 320 319 319 319 318 318
310 312 314 313 317 318 314 313 314 315 314 315 317 316 313 315 315 313 316 320 315 309 308 309 308 308 313 315 314 314 314 316 319 318 317 318 318 314 313 313 312 311 310 307 305 307 308 308 309 309 309 309 309 309 311 312 312 312 311 313 316 317 317 316 317 318 319 320 320 320 321 320 319 319 319 319 319 320 321 321 321 321 321 320 320 319 320
310 312 314 315 321 321 316 316 315 314 314 313 314 312 309 311 313 313 318 319 312 309 309 308 307 308 310 310 310 311 311 312 316 320 319 318 318 318 315 314 313 312 311 307 304 305 306 306 307 308 308 309 308 308 308 308 308 309 309 309 310 310 310 310 310 311 312 314 315 315 315 314 313 313 314 314 315 315 316 316 316 317 317 318 319 319 320
312 312 314 319 324 320 317 316 311 309 311 311 310 309 306 306 310 314 317 313 308 309 310 308 306 307 306 306 307 308 309 309 310 314 316 316 317 317 314 312 312 310 308 305 304 304 305 305 305 306 307 307 307 307 307 307 307 308 307 307 307 307 308 308 308 308 308 309 310 310 310 309 309 309 310 310 310 310 311 311 311 311 312 313 315 317 318
313 312 315 319 319 316 314 311 308 307 309 309 310 308 305 305 307 308 309 307 306 308 308 306 306 305 305 305 304 305 307 308 309 309 310 311 311 311 310 311 311 308 306 306 305 305 305 305 305 305 306 307 307 306 307 306 307 306 307 307 307 307 307 307 307 307 307 308 308 308 308 308 308 308 309 309 309 310 310 310 310 310 310 311 312 313 314
314 312 315 315 313 312 310 306 305 307 306 305 306 305 303 305 306 305 305 305 306 307 306 305 305 304 303 302 303 302 303 305 307 309 309 309 310 310 310 311 309 307 306 306 306 305 305 305 305 305 306 306 306 306 306 306 306 306 306 307 307 307 307 307 307 307 307 307 307 308 308 308 308 309 309 309 309 309 309 309 309 309 309 310 310 310 311
312 311 315 315 310 307 306 305 306 307 307 307 308 307 304 304 305 305 304 304 305 307 307 306 306 305 302 301 301 302 302 302 305 307 309 311 310 309 309 310 308 307 306 306 305 304 305 306 305 305 305 305 306 306 306 306 306 306 306 306 306 307 307 307 307 307 307 307 308 308 308 308 308 309 309 309 309 309 310 310 310 310 310 310 310 310 310
313 313 311 309 307 306 307 308 307 306 307 308 310 308 304 303 304 304 303 304 305 306 306 307 308 307 304 302 302 301 301 301 302 303 304 306 306 305 306 308 308 307 307 307 306 305 306 306 305 306 306 305 306 306 306 306 306 306 306 306 306 306 307 307 307 307 307 307 307 308 308 308 309 309 309 309 310 310 310 310 310 310 310 310 310 310 310
313 316 310 307 308 309 310 309 308 306 307 305 306 308 306 304 304 303 303 304 305 304 305 305 307 308 305 303 302 302 301 301 301 300 299 299 301 302 303 305 307 307 307 306 306 306 306 306 305 305 306 305 306 306 306 306 305 305 306 306 306 306 306 306 307 306 306 307 306 307 307 307 308 309 309 309 309 309 310 310 310 310 309 309 309 310 310
311 313 312 310 310 309 309 309 308 307 305 302 305 311 308 303 303 303 302 303 303 303 304 302 304 308 306 303 302 301 301 301 300 299 298 297 298 299 300 301 302 303 304 304 304 305 305 305 305 305 305 305 306 306 306 306 306 305 305 305 306 306 305 306 307 306 306 306 306 306 307 307 308 309 309 309 310 309 310 310 310 310 310 310 310 310 310
311 312 312 310 308 307 306 306 306 305 303 302 307 312 308 302 302 302 301 302 302 301 301 301 302 305 304 302 301 301 300 298 297 297 297 296 297 297 298 298 299 300 300 300 301 302 302 302 303 304 305 305 306 305 305 305 306 306 305 305 305 305 305 306 306 306 306 306 306 306 306 307 308 309 309 309 309 309 309 308 309 308 309 309 309 309 310
312 312 310 307 307 306 304 303 304 303 302 304 307 310 307 302 300 300 300 301 301 300 301 301 300 302 302 302 301 299 298 298 297 296 296 296 296 297 298 298 299 299 299 299 299 299 299 300 300 301 303 304 305 304 304 304 305 305 305 305 305 305 306 306 306 306 306 306 306 306 306 307 307 308 308 308 308 307 307 307 307 307 307 307 308 308 309
308 309 308 306 306 305 302 302 303 303 305 307 306 305 304 302 301 300 300 301 300 300 301 300 299 300 300 301 300 299 298 299 298 296 295 296 297 297 298 299 299 299 299 299 299 299 299 299 299 299 300 301 302 303 303 303 304 304 304 304 304 304 305 306 306 305 305 306 306 306 306 306 307 307 307 307 307 307 307 306 306 307 307 307 308 308 308
306 307 307 306 305 302 300 302 303 302 304 305 302 300 301 302 301 300 299 299 298 299 300 299 299 300 300 300 301 300 300 299 297 295 296 296 296 297 297 298 298 298 299 299 299 299 299 299 300 300 300 300 300 301 301 302 302 303 303 303 303 304 305 305 305 305 305 306 305 305 306 306 306 307 307 307 307 307 306 307 307 307 307 307 307 307 307
306 307 305 304 304 302 299 300 301 299 299 301 300 299 299 299 300 301 300 298 297 299 301 301 300 300 301 301 301 301 301 300 296 295 296 297 297 297 298 298 298 298 298 299 299 299 299 299 299 300 300 300 300 300 301 301 302 302 303 302 302 304 305 305 305 305 305 305 305 305 305 305 306 306 306 306 306 306 306 307 307 307 307 307 306 306 306
301 303 302 303 303 301 299 298 298 298 298 300 301 301 300 298 298 300 300 299 298 300 301 301 301 300 300 301 300 300 301 301 297 295 296 297 297 297 298 298 298 298 298 299 299 299 299 299 299 299 300 300 300 300 300 301 302 302 303 303 303 303 305 304 304 304 304 305 305 305 305 306 306 306 306 306 306 306 306 307 307 307 307 307 306 305 304
298 299 300 300 299 298 297 297 297 297 298 299 300 300 299 298 299 299 300 300 299 300 300 300 301 301 301 301 301 300 301 301 297 295 296 297 297 297 297 298 298 298 298 298 298 299 299 299 299 299 300 300 301 301 300 301 302 302 302 303 303 303 304 304 304 304 305 305 305 305 305 305 305 305 305 305 305 305 305 306 306 306 306 306 306 305 304
301 300 298 298 297 297 297 297 297 297 298 299 299 299 298 298 299 299 298 299 299 300 299 299 300 301 301 302 302 301 302 300 297 295 296 297 297 297 297 297 298 298 298 298 298 299 299 299 299 299 300 300 300 301 301 301 301 302 302 302 303 302 303 303 303 303 304 304 304 305 305 305 305 305 305 305 305 305 305 305 305 306 306 306 305 304 304
303 300 297 298 298 297 297 297 297 297 298 298 299 299 300 300 299 297 296 297 299 300 300 300 301 301 302 302 301 301 300 297 294 294 295 296 297 297 298 298 298 298 298 298 298 298 298 299 299 299 299 300 300 300 300 301 301 301 301 301 301 302 302 302 302 302 303 303 303 304 304 304 304 305 304 304 305 305 305 305 305 305 305 305 305 304 304
299 298 298 300 299 297 299 299 298 297 298 299 300 301 301 301 301 299 297 296 296 297 298 298 299 300 301 299 297 299 299 295 293 294 295 295 296 296 297 297 298 298 298 298 298 298 299 299 299 299 299 299 299 299 300 300 301 301 301 301 301 301 301 301 301 302 302 303 303 303 304 304 304 304 304 304 304 304 304 304 305 305 304 304 304 304 304
299 299 299 299 298 298 300 299 297 297 298 299 300 300 300 300 301 301 300 297 295 294 294 294 296 299 299 296 294 295 296 294 293 294 294 293 294 294 294 295 296 297 298 298 297 298 298 298 299 300 300 299 299 299 299 300 300 301 301 301 301 301 301 301 301 302 302 303 303 304 303 304 304 304 304 304 304 304 304 304 304 305 304 304 304 304 304
301 302 303 300 299 299 300 300 299 299 299 299 299 299 299 300 299 298 299 300 299 297 294 293 294 296 295 293 293 293 292 292 293 292 291 291 291 292 292 292 293 295 296 295 295 296 296 297 297 298 299 300 300 300 300 300 300 301 301 301 301 302 302 302 302 303 303 303 303 303 303 303 303 303 303 303 302 302 302 303 303 303 304 305 305 304 304
299 300 303 302 299 299 300 301 301 299 297 297 299 299 299 299 296 294 296 298 298 298 295 292 292 293 292 291 291 291 290 291 291 290 290 290 290 290 290 290 290 292 294 294 294 294 295 295 295 296 297 298 299 300 301 301 301 302 302 302 302 302 302 303 303 303 303 303 303 303 303 302 302 302 301 301 301 300 300 300 300 301 302 304 304 304 303
298 298 300 301 299 299 299 299 298 296 294 295 298 298 297 296 295 294 294 293 293 294 294 292 291 291 291 291 291 290 290 290 290 290 289 289 289 288 288 288 289 290 291 293 293 293 293 293 294 294 295 296 298 299 300 301 302 302 302 302 303 302 302 303 303 302 302 302 302 302 301 301 300 300 300 300 299 298 298 298 299 299 300 301 302 302 302
300 299 299 299 299 300 299 298 298 296 294 293 295 296 295 295 295 294 293 292 291 291 292 291 291 291 291 290 290 290 289 289 289 289 289 288 288 288 288 288 288 289 290 291 292 291 292 292 292 292 293 295 296 297 298 299 301 301 302 302 302 302 302 302 302 302 301 301 300 300 300 299 299 299 299 299 298 298 297 296 297 297 298 299 299 300 300
300 299 298 297 299 301 300 298 297 295 293 293 294 294 293 294 294 293 292 292 292 292 291 291 290 290 290 290 290 289 289 289 289 289 288 288 287 287 287 287 288 288 289 290 290 290 290 290 290 291 292 294 295 295 296 297 299 300 301 302 301 301 301 301 301 300 300 299 299 298 298 298 298 298 298 298 297 296 296 296 295 295 296 296 296 297 298
299 298 297 297 299 299 297 295 294 293 292 293 293 293 293 293 293 293 293 292 292 291 291 290 290 289 289 289 289 289 289 288 288 288 287 287 287 287 287 287 287 288 288 288 289 289 289 289 289 289 290 292 294 294 294 296 298 299 299 300 301 301 300 299 299 299 298 298 298 297 297 297 296 296 296 296 295 295 295 295 294 294 293 294 294 294 295
299 298 298 297 295 294 294 294 293 294 294 293 293 293 293 294 294 293 293 292 291 291 290 290 290 290 289 289 288 288 288 288 287 287 287 287 287 287 286 286 287 287 287 288 288 288 288 288 288 288 289 290 291 292 293 295 297 298 297 298 299 299 299 298 298 298 297 297 296 295 295 295 294 294 294 293 293 294 293 293 293 292 292 292 292 292 292
298 298 299 298 294 293 295 295 294 296 295 293 293 293 293 293 294 294 292 291 290 290 290 290 290 289 289 288 287 287 287 287 287 287 287 286 286 286 286 286 286 287 287 288 288 288 288 288 288 289 289 288 289 290 292 295 296 297 296 297 297 298 298 297 297 296 296 295 294 293 293 293 292 292 292 292 292 292 292 292 292 291 291 291 291 290 290
297 297 298 298 296 296 296 295 294 295 295 293 294 294 293 293 294 293 292 291 290 289 289 290 289 289 288 288 287 287 287 287 286 286 286 286 286 286 286 286 286 287 287 288 288 288 288 289 289 289 289 288 288 290 292 294 295 296 296 297 297 297 296 296 295 295 294 293 293 292 292 292 292 292 291 291 291 291 291 291 291 291 291 291 291 291 291
297 297 297 297 297 296 296 295 295 296 295 294 294 295 294 293 293 293 292 292 290 289 289 289 288 289 288 288 287 287 286 286 286 286 286 286 286 286 286 286 286 286 287 287 287 288 288 288 289 289 289 289 289 290 292 293 294 295 296 296 296 296 295 295 294 293 293 293 293 293 293 293 293 293 292 291 291 291 291 291 291 291 291 291 291 291 291
298 298 297 297 297 296 295 295 295 295 295 294 294 294 293 292 292 292 291 291 290 289 289 289 289 289 289 288 287 286 286 286 286 286 286 286 286 286 286 286 286 286 286 287 287 287 288 288 289 289 289 289 289 290 291 293 294 295 295 295 295 295 294 294 294 294 294 294 294 294 294 294 294 294 294 293 293 292 292 292 292 292 292 292 292 291 291
297 297 296 297 296 295 295 295 295 295 294 293 293 293 292 292 292 291 291 290 290 289 289 289 289 290 289 288 287 286 286 286 286 286 286 286 286 286 286 286 286 286 287 287 288 288 288 288 289 289 290 290 290 290 292 294 295 295 295 295 294 294 294 294 294 294 294 294 294 295 295 294 294 294 295 295 294 294 294 293 293 292 292 292 292 292 292
293 293 293 294 294 293 293 294 294 294 294 293 293 292 292 291 291 291 291 290 290 290 290 290 289 289 289 288 286 286 286 286 286 285 285 286 286 286 286 286 286 286 287 288 289 289 289 289 290 290 290 290 290 292 293 295 295 295 295 294 294 295 295 295 295 295 295 295 295 295 295 294 295 295 295 295 295 295 295 294 294 294 293 293 293 293 293
293 292 292 292 292 293 292 293 293 293 293 293 292 292 292 291 291 291 290 290 290 290 290 290 289 289 289 287 286 285 285 285 285 285 285 285 286 286 286 286 286 286 287 288 289 290 291 292 291 291 290 290 291 293 294 295 295 295 294 295 295 296 295 295 295 295 296 296 295 295 295 295 295 296 296 296 296 295 295 295 294 294 293 293 293 293 292
292 292 292 292 292 292 292 292 292 292 292 291 291 291 291 291 291 290 290 290 290 290 290 289 289 288 288 287 285 284 284 284 284 285 285 285 286 286 286 286 286 286 287 288 289 291 292 293 292 291 291 292 293 295 295 295 295 295 295 295 296 296 295 295 295 296 296 296 296 296 295 295 295 295 295 295 295 295 295 294 293 293 292 292 292 292 291
292 292 292 292 292 292 292 292 292 292 291 291 291 291 291 290 290 290 290 290 290 290 290 289 288 288 288 287 286 284 284 284 284 285 285 285 286 286 286 286 286 286 286 287 289 291 293 294 294 294 294 294 295 296 295 295 294 295 295 296 296 296 296 296 296 296 296 296 296 296 295 295 295 294 293 293 293 293 293 293 292 292 291 291 291 291 291
292 292 292 292 292 292 292 292 292 291 291 291 291 291 291 290 290 290 291 290 290 290 289 288 287 288 288 288 286 284 284 284 284 284 285 285 286 286 287 287 287 287 287 288 290 291 293 294 295 295 295 296 296 295 295 294 295 295 296 296 296 296 296 296 296 296 295 295 295 295 295 294 294 293 292 291 291 291 292 291 291 291 291 290 290 290 290
291 292 292 292 292 292 292 292 292 292 292 292 292 292 291 291 291 291 291 290 289 289 288 287 286 287 288 288 285 284 283 284 284 284 285 285 285 286 287 287 288 288 289 289 291 291 292 293 294 294 294 295 295 295 295 295 295 296 296 296 296 296 296 296 296 295 295 294 294 294 293 293 293 292 291 291 291 290 290 290 290 290 290 290 290 290 289
290 292 292 292 292 292 292 292 292 293 292 292 292 292 292 292 292 292 290 289 289 288 287 286 285 286 287 287 286 284 284 284 284 284 284 284 284 285 286 286 287 288 289 289 290 291 292 292 293 293 293 294 294 294 295 295 296 296 296 296 296 296 295 295 295 295 294 293 293 292 292 292 292 291 290 290 290 289 289 289 289 289 289 289 289 288 288
290 291 292 291 292 292 292 292 293 293 293 293 293 292 293 293 292 291 289 289 289 288 286 285 285 285 285 286 285 284 284 284 284 284 284 284 284 284 285 285 287 289 290 290 290 291 292 292 292 292 293 294 294 294 295 295 295 296 295 295 295 295 295 294 294 293 293 292 292 291 291 291 290 290 289 289 289 289 289 289 288 288 288 288 287 287 287
291 291 291 291 292 292 293 293 293 293 293 293 293 293 293 292 291 289 289 289 289 288 286 285 284 284 284 284 284 284 284 284 285 284 285 284 285 285 285 286 287 289 290 290 290 290 291 291 292 292 292 293 294 294 295 295 295 295 294 294 293 293 293 293 292 292 291 291 290 290 290 290 289 289 289 288 288 288 288 288 288 287 287 286 286 286 285
291 291 291 292 293 293 293 294 294 293 293 293 293 293 292 291 290 289 289 289 289 288 287 286 285 284 284 283 283 283 284 284 284 284 285 285 285 285 286 287 288 288 289 289 290 290 290 290 291 292 292 292 293 293 294 294 293 293 293 292 292 292 292 291 291 291 290 290 289 289 289 289 289 289 288 288 288 287 287 287 287 286 286 285 285 284 284
291 292 292 292 293 294 294 294 294 294 294 294 294 293 292 290 290 290 290 289 288 288 288 287 286 285 284 284 284 284 284 284 284 284 284 284 284 284 286 287 287 288 288 288 288 288 289 289 290 291 292 292 292 292 292 292 292 292 292 292 292 291 291 291 291 290 290 290 289 289 289 289 289 288 288 288 287 287 286 286 285 285 284 284 283 283 282
292 293 293 293 293 294 294 294 295 295 294 293 293 292 292 290 290 290 290 289 288 288 288 287 287 286 285 284 284 284 284 284 284 284 284 284 284 284 285 286 286 287 288 288 288 288 288 289 289 290 291 292 292 292 292 292 292 292 292 291 291 291 291 290 290 290 289 289 289 288 288 288 287 287 287 286 286 285 285 284 284 284 283 283 283 282 282
292 292 292 293 293 294 295 295 295 295 294 292 291 291 291 291 290 290 290 290 289 288 287 287 287 287 286 286 285 284 284 284 284 284 284 284 284 284 285 285 285 286 287 287 287 287 287 288 288 289 289 290 291 291 291 291 291 290 290 290 289 289 289 288 288 288 288 288 287 287 286 286 286 286 285 285 285 285 284 284 283 283 283 283 283 282 282
292 292 292 293 294 294 295 295 294 294 294 293 292 292 292 291 290 290 290 290 289 288 287 287 287 287 286 286 285 284 284 284 284 284 284 284 284 284 284 284 285 285 285 286 286 287 287 287 287 288 288 288 289 289 289 289 288 288 288 288 287 287 287 287 286 286 286 286 286 286 285 285 285 285 285 284 284 284 284 284 284 283 283 283 282 282 282
293 293 293 293 293 294 294 294 294 294 295 294 294 294 294 293 291 290 290 290 289 288 287 287 287 286 286 286 285 284 284 284 284 284 284 284 284 284 284 284 284 284 285 285 285 285 286 286 287 287 287 287 287 287 287 287 287 287 287 287 286 286 286 286 286 286 285 285 285 285 285 285 285 285 284 284 284 284 284 283 283 283 283 282 282 282 282
293 293 292 292 293 293 294 294 294 294 295 295 295 295 294 294 292 291 291 290 289 288 287 287 287 287 286 285 284 284 283 284 284 284 284 284 284 284 284 284 284 284 284 284 284 284 285 285 285 286 286 286 286 286 286 286 286 286 286 286 286 286 286 286 286 286 285 285 285 285 285 285 285 284 284 284 284 283 283 283 282 282 282 282 281 281 281
293 293 293 293 294 294 294 295 294 294 295 295 295 295 294 294 293 293 292 290 290 289 288 287 287 287 286 285 284 284 284 284 284 284 284 284 284 284 284 284 284 284 283 283 284 284 284 284 284 284 284 285 285 285 285 285 285 285 285 285 285 285 285 285 285 285 285 285 284 284 284 284 284 283 283 283 283 282 282 282 282 282 281 281 280 279 279
294 294 294 294 294 294 294 294 294 294 294 294 295 295 295 294 294 293 292 291 290 289 288 287 287 287 286 285 285 285 285 285 284 284 284 284 284 284 283 283 284 284 283 283 283 283 283 283 283 283 283 284 284 284 284 284 284 284 284 284 284 284 284 284 284 284 283 283 283 283 283 283 283 282 282 282 282 282 281 281 281 281 281 281 279 278 278
Wind_Speed
4 4 3 1 4 4 3 4 4 1 3 5 5 3 3 6 5 4 4 4 4 3 3 4 5 4 4 4 4 3 3 4 4 5 5 5 4 3 5 6 7 8 8 7 10 14 14 14 15 15 13 11 9 6 5 6 8 7 6 6 6 5 5 6 5 4 6 8 8 10 12 12 14 15 15 16 19 20 18 18 18 17 17 18 19 21 22
5 5 3 4 6 5 3 3 2 1 1 3 4 2 1 5 5 4 6 7 2 2 2 4 5 4 2 1 4 5 4 2 3 6 6 6 5 3 2 3 2 3 5 6 10 15 16 16 17 18 18 18 16 14 11 9 8 6 4 4 4 4 3 3 3 3 5 7 9 11 11 11 14 16 17 18 19 18 16 14 14 14 15 16 19 22 22
3 5 5 5 6 5 5 5 5 3 2 3 4 4 3 3 3 3 6 8 3 3 2 4 5 4 5 6 7 6 5 5 2 2 3 4 6 5 5 4 4 3 3 3 5 10 14 15 17 18 19 19 19 18 16 15 13 11 10 9 8 7 6 5 4 5 8 10 11 11 10 9 9 9 9 9 8 8 7 7 8 9 12 15 18 21 21
1 2 3 3 4 7 6 5 6 4 3 3 3 3 3 1 2 4 5 6 1 3 4 6 6 8 9 8 7 6 6 7 6 4 2 2 5 6 6 6 6 6 5 5 5 4 7 10 13 17 18 19 19 18 16 15 14 13 12 12 11 10 9 8 6 5 5 6 5 5 4 3 2 2 3 3 2 2 1 1 1 2 5 7 9 11 11
3 3 1 2 4 6 3 3 2 1 4 6 5 5 5 4 2 4 3 3 2 3 4 6 8 9 10 8 6 6 6 7 7 6 5 4 5 7 7 7 7 7 6 8 10 9 5 5 8 12 15 17 16 15 14 13 12 12 11 9 8 8 8 7 7 7 6 6 5 5 5 5 5 5 5 6 6 6 5 5 3 2 1 2 3 4 5
3 5 3 4 3 1 4 5 3 3 5 9 9 5 5 6 4 2 2 1 3 4 5 6 8 8 7 6 6 6 6 6 7 8 7 6 6 7 8 7 7 8 9 12 14 14 12 8 5 8 12 15 15 13 13 12 11 10 9 8 6 6 6 6 5 5 5 5 5 4 4 4 4 4 4 5 5 5 4 4 3 2 2 3 4 5 6
2 2 5 3 2 4 2 2 3 5 6 11 14 8 5 6 6 4 5 6 5 4 4 5 7 7 6 6 8 8 7 6 6 7 7 7 7 7 7 7 7 10 14 16 17 17 17 15 12 9 9 12 14 14 13 12 12 11 10 10 8 7 6 5 4 4 3 3 2 1 1 1 2 2 3 3 3 2 2 2 2 3 3 5 6 7 7
2 1 3 2 5 3 0 4 4 3 2 5 10 8 7 7 6 4 5 5 5 4 4 2 2 3 3 6 9 9 8 7 7 6 5 5 5 5 6 7 7 10 15 16 16 15 15 16 17 14 11 8 9 11 12 12 12 12 12 11 11 9 8 7 6 6 5 4 3 2 1 1 1 1 1 1 1 2 2 2 2 3 4 5 6 7 7
3 3 2 1 1 1 2 3 2 1 1 3 3 5 3 4 4 3 3 5 6 5 4 5 4 3 4 7 7 8 9 8 6 6 6 6 5 4 4 7 7 6 4 4 6 6 3 6 10 11 11 11 10 7 6 8 8 8 9 9 9 8 7 6 6 6 6 6 5 5 4 3 2 2 1 1 1 1 2 3 3 4 5 6 6 7 7
3 5 3 1 2 3 5 4 4 2 4 5 3 5 1 3 4 2 2 4 5 5 5 5 4 3 5 6 5 7 8 8 7 8 9 10 11 9 7 5 5 7 7 7 8 7 4 3 3 3 4 6 7 8 6 5 6 5 4 5 5 5 4 3 4 4 4 4 4 4 4 4 3 3 2 2 2 3 3 4 5 6 6 7 7 8 8
2 5 4 3 3 4 5 6 6 6 4 4 3 5 0 2 4 2 3 5 4 4 4 4 3 4 4 2 3 5 6 7 7 7 9 13 15 15 15 13 8 5 4 3 4 5 5 5 5 5 5 4 5 6 7 7 8 8 7 5 4 4 3 1 0 1 2 2 3 3 4 4 3 2 2 2 3 3 4 4 5 5 5 6 6 7 8
2 4 3 2 2 2 3 4 6 7 4 2 5 2 3 1 2 2 3 6 4 4 4 5 5 5 3 2 3 4 5 7 7 8 9 11 14 15 17 17 14 11 9 7 6 4 3 4 5 7 11 12 12 12 12 12 12 12 12 10 7 5 5 4 3 2 1 0 1 3 4 4 2 1 1 2 3 4 4 5 5 5 5 5 6 7 7
2 3 3 1 1 1 3 5 6 7 4 2 4 4 5 3 2 1 3 5 3 4 5 4 3 1 2 2 3 5 5 5 7 9 11 11 13 14 15 16 16 16 15 13 11 10 10 11 11 8 10 15 15 14 13 13 14 14 13 11 10 8 9 8 7 5 4 3 1 0 1 1 1 2 3 4 5 5 5 6 6 6 6 6 6 7 7
3 3 3 1 0 1 5 7 5 2 0 2 3 4 3 4 4 2 2 3 2 3 4 3 1 2 3 2 3 4 4 4 5 9 12 13 14 14 14 14 16 16 16 15 15 14 14 14 14 11 8 11 14 15 15 14 13 13 11 10 9 9 10 10 9 8 7 6 5 4 3 3 4 5 5 5 6 6 6 6 6 6 6 6 6 6 6
2 3 3 2 1 3 7 6 3 3 2 2 2 1 2 3 3 3 2 2 2 3 3 1 1 2 3 3 3 4 4 4 4 7 9 10 11 11 11 12 13 13 13 14 15 15 15 15 15 14 10 9 12 14 16 15 13 12 12 11 10 10 11 11 11 10 9 8 7 6 6 6 6 6 6 5 6 6 6 6 6 6 6 6 6 6 7
2 2 1 2 1 3 6 3 2 2 2 1 3 3 2 1 2 3 3 1 2 3 4 2 1 0 1 3 4 4 4 5 5 6 8 9 10 11 11 11 12 12 11 12 13 14 15 15 14 14 13 12 12 13 15 14 13 13 15 14 13 13 13 12 11 11 10 10 9 9 9 8 7 6 6 6 6 7 7 6 7 7 7 7 7 8 8
2 2 2 2 2 3 4 3 3 1 2 2 3 4 2 1 1 2 3 2 3 3 4 4 3 2 2 3 3 3 4 4 5 7 8 9 10 11 12 13 13 13 12 12 12 13 13 13 13 13 14 14 13 12 14 15 14 14 14 13 13 13 13 12 11 11 11 11 11 11 10 10 10 9 9 9 9 9 8 8 8 9 9 9 9 10 10
3 4 3 3 2 0 2 3 2 3 4 3 3 4 2 1 2 1 1 3 4 3 2 1 2 3 3 3 4 4 4 4 6 9 11 12 12 12 12 13 13 13 12 12 12 12 12 12 11 11 11 12 13 11 11 12 13 13 12 13 13 12 11 11 10 10 10 10 10 10 11 12 12 12 12 12 12 12 12 11 11 11 11 12 12 12 12
3 2 1 1 2 1 0 1 3 4 5 3 2 3 1 2 2 1 2 3 3 2 1 1 2 4 4 4 5 5 3 4 6 9 11 14 15 14 14 13 13 13 12 12 11 11 12 12 11 10 9 9 10 11 9 7 7 8 9 10 12 12 12 11 10 10 10 10 10 11 12 13 13 13 13 14 14 15 14 14 14 14 14 14 14 15 15
2 2 3 2 1 3 2 2 2 1 1 2 2 2 1 1 1 2 2 3 3 2 2 3 4 5 5 4 5 5 4 4 6 8 9 11 11 11 12 13 13 13 13 14 13 13 14 13 12 12 12 12 12 13 12 10 9 9 9 9 10 11 11 11 11 12 13 13 14 14 14 15 14 15 15 15 16 17 16 16 16 16 16 16 17 17 18
2 1 2 2 2 3 3 2 1 1 2 1 2 3 2 2 3 3 4 3 4 4 4 5 5 5 5 5 5 5 4 5 6 7 8 9 10 11 12 13 13 13 13 13 14 14 15 13 12 13 14 15 16 15 15 15 13 13 13 13 13 14 14 14 14 15 15 16 16 16 16 16 16 16 17 17 17 17 16 16 16 15 16 17 17 18 19
0 3 2 1 2 2 4 3 2 3 2 1 1 3 3 3 3 4 4 6 6 4 3 2 3 3 4 5 4 4 5 6 7 8 10 11 12 13 14 14 14 13 12 11 12 12 13 12 12 12 14 15 17 18 17 18 17 16 16 16 16 17 17 18 18 17 17 18 17 17 17 17 17 17 17 16 16 16 16 16 16 17 18 18 18 17 18
4 6 5 4 3 2 5 4 4 4 3 2 1 3 3 4 5 5 5 5 6 4 2 4 3 1 3 4 5 4 5 7 9 10 12 14 14 15 16 16 16 15 14 13 13 13 13 12 12 12 13 14 16 18 19 20 20 19 19 18 18 18 18 18 18 18 18 18 18 17 17 16 16 16 15 15 16 17 17 18 18 18 20 20 19 17 17
3 4 5 5 4 3 5 5 4 5 4 4 4 4 5 5 6 5 5 4 3 1 2 6 7 6 5 6 7 6 7 9 11 12 14 15 16 17 18 17 17 17 17 16 16 16 16 15 15 15 14 13 13 15 17 19 20 20 19 19 18 17 16 17 17 17 17 16 16 16 16 16 16 16 16 16 17 17 18 18 18 19 20 21 20 19 17
3 3 5 5 4 5 5 4 3 3 3 2 3 4 5 5 4 1 2 3 5 5 4 5 7 8 7 7 8 8 9 11 13 14 15 16 17 17 18 18 18 18 19 18 17 17 18 18 18 19 18 15 12 12 14 16 18 19 18 17 17 16 16 17 17 16 16 15 15 16 16 17 17 17 17 18 18 17 15 15 15 17 18 17 16 16 15
3 3 2 1 1 2 2 3 2 3 6 5 3 4 4 4 5 7 7 7 7 7 5 4 6 8 8 9 10 11 12 14 16 16 16 16 16 17 18 19 20 20 20 19 19 18 19 20 21 22 22 20 15 14 14 15 16 17 17 16 16 15 16 16 16 15 15 15 15 16 16 17 17 16 16 16 16 15 12 10 9 11 13 12 11 12 14
1 1 2 2 4 4 3 2 2 4 7 6 3 3 5 7 9 8 7 6 5 5 5 4 6 9 11 11 12 13 14 15 16 16 16 16 17 18 20 21 21 21 20 20 19 19 20 21 22 24 25 23 19 16 16 16 15 16 17 17 16 15 14 13 13 13 13 13 13 13 13 13 13 13 13 13 13 13 12 11 10 11 12 13 13 13 14
2 2 1 2 4 4 3 3 2 3 5 4 4 4 5 6 6 5 3 2 2 3 4 5 7 9 11 12 13 14 15 15 14 15 16 17 19 20 20 21 21 21 21 22 21 21 21 22 23 26 28 28 25 21 19 17 16 17 19 18 16 14 13 12 12 11 10 9 9 9 8 8 9 9 10 11 12 12 12 12 14 16 16 16 17 17 18
3 3 1 1 3 3 1 1 3 4 4 2 4 4 4 4 3 2 1 2 3 4 4 7 9 9 10 12 13 13 13 14 14 15 17 19 20 20 21 21 22 22 22 22 22 22 22 21 22 24 27 28 26 22 19 17 16 17 18 18 15 13 11 10 8 7 7 7 6 5 6 6 7 8 8 10 12 13 14 15 17 19 19 20 20 21 21
4 3 1 1 1 2 3 2 3 4 3 1 2 3 2 2 1 0 1 3 4 4 6 8 10 10 11 12 12 13 14 15 16 18 19 20 20 20 20 20 19 18 18 19 19 19 19 19 19 20 21 22 22 20 17 15 14 15 17 16 14 11 9 8 7 7 6 5 4 4 4 5 6 8 9 11 13 15 17 19 20 21 21 21 22 23 22
2 2 1 0 1 2 2 1 2 2 1 0 1 1 1 1 1 1 1 2 4 6 8 9 10 11 11 12 14 15 16 16 17 18 19 19 19 19 19 18 16 16 17 18 19 19 18 19 19 20 19 19 18 17 15 13 13 13 15 15 11 9 8 8 8 7 6 6 6 7 7 8 10 12 14 15 17 18 20 22 22 22 21 21 20 20 21
1 3 3 2 2 1 1 1 1 1 1 1 1 2 1 1 1 2 3 5 6 8 9 10 11 11 11 12 15 16 16 16 17 17 17 17 18 19 19 18 17 18 20 21 21 21 21 21 21 21 20 18 16 14 14 13 11 12 14 13 11 11 10 10 9 9 9 10 10 11 12 13 14 15 16 17 18 19 20 22 21 20 19 18 17 16 15
2 3 3 2 2 2 2 1 1 0 2 2 2 2 2 1 3 5 6 8 9 10 11 12 13 14 11 11 14 15 15 14 14 14 15 17 18 19 19 19 19 20 21 21 21 21 21 22 22 22 20 18 15 13 12 10 10 12 14 12 12 13 13 12 12 13 13 13 13 13 14 15 15 14 14 14 15 16 17 18 17 16 15 14 12 11 11
5 5 4 4 3 3 3 2 1 1 2 1 1 3 4 5 6 8 9 9 9 11 13 15 16 15 12 10 12 14 13 11 10 11 14 17 19 20 21 21 21 21 20 18 17 17 17 19 20 21 19 17 14 11 10 10 12 14 14 13 14 15 14 14 14 14 13 12 12 12 12 12 11 9 9 9 11 12 13 13 12 12 11 10 8 8 8
4 2 2 3 3 3 4 4 2 2 2 1 1 3 5 7 8 8 10 10 11 13 16 17 17 15 12 9 10 12 12 11 11 13 16 17 18 20 21 21 21 20 18 15 12 12 13 14 16 17 15 13 11 10 10 12 14 15 16 16 16 16 15 15 15 14 12 11 11 11 10 9 8 7 7 8 9 9 10 10 9 7 6 5 5 6 7
4 4 3 4 4 3 4 4 4 3 3 2 2 4 6 8 9 10 11 12 12 15 17 18 17 13 9 5 7 11 12 12 13 14 16 16 18 18 18 18 20 20 17 16 17 16 10 6 8 9 9 10 10 10 12 14 17 18 18 18 17 15 15 16 15 13 11 9 9 9 9 8 7 7 7 8 9 10 10 9 8 6 5 5 6 7 8
5 6 5 5 4 3 3 4 4 4 3 3 3 5 7 8 10 10 11 13 15 17 18 18 17 12 5 3 5 10 12 12 13 14 14 16 17 16 16 18 22 22 20 20 21 18 11 6 6 7 8 9 10 11 14 18 20 20 19 18 17 16 16 17 15 12 10 8 7 8 8 8 7 6 7 8 11 13 13 12 10 9 10 10 11 12 14
5 5 5 5 3 2 3 3 4 4 4 4 5 7 8 9 10 11 13 15 17 17 14 13 14 10 4 1 6 11 12 13 13 14 14 15 16 15 14 18 22 23 21 19 19 18 15 13 12 11 11 11 13 16 19 22 22 20 18 17 16 16 17 16 13 10 8 7 7 9 9 9 8 8 9 10 13 15 16 16 15 15 15 15 16 16 17
5 5 5 5 4 4 5 5 6 7 8 8 9 10 9 9 11 12 14 15 14 10 6 7 9 8 4 2 5 10 11 12 13 14 15 16 15 13 13 18 22 21 19 17 18 19 19 18 18 18 17 18 20 23 24 23 21 18 16 15 15 16 15 14 11 9 9 9 9 10 11 12 12 13 14 15 17 18 19 18 18 18 18 18 17 16 16
6 7 8 8 7 7 7 7 8 9 10 10 12 12 10 10 12 13 13 12 8 3 1 4 7 7 5 2 2 7 10 11 14 15 16 16 15 14 15 20 23 22 20 18 18 18 19 20 21 21 21 22 24 24 22 20 18 16 15 14 14 14 13 12 11 11 11 11 11 12 13 15 15 16 17 18 19 20 20 20 19 19 18 17 16 15 14
9 10 10 10 9 9 9 8 8 9 9 11 12 12 12 13 14 13 10 6 3 0 1 2 4 4 3 2 1 4 7 10 12 15 16 16 16 14 13 17 21 22 20 19 18 17 18 19 19 19 18 19 19 19 18 17 15 14 13 12 12 12 13 12 13 13 13 13 13 14 15 16 17 17 18 19 19 19 19 19 18 17 16 15 14 13 12
11 12 11 10 10 10 9 9 9 10 11 12 12 13 13 13 11 8 4 2 0 2 2 2 2 1 1 1 2 1 4 6 9 13 15 16 16 14 12 14 19 21 20 19 19 18 17 18 18 18 17 16 16 16 16 15 14 13 13 12 12 13 14 14 14 14 14 14 14 15 16 17 18 18 19 19 19 19 18 17 16 15 14 13 12 11 10
13 13 12 11 11 11 10 10 10 10 11 12 11 11 12 10 7 4 2 2 0 4 4 3 3 2 2 2 3 3 4 4 6 9 12 15 17 16 14 15 17 19 19 19 20 20 18 17 16 16 16 16 16 17 17 16 15 15 15 15 15 16 16 16 16 16 16 15 16 16 16 17 18 19 19 19 19 18 17 15 14 13 12 10 9 8 8
16 15 13 13 13 11 10 11 11 11 12 13 12 10 9 7 5 4 2 2 0 3 5 5 5 5 5 5 5 6 5 4 5 7 10 12 15 16 16 15 16 16 17 18 19 19 19 17 15 14 15 16 17 18 19 19 18 17 18 18 18 17 17 17 17 17 17 16 16 16 16 17 17 18 18 18 17 16 14 13 11 10 8 7 5 4 4
17 17 16 15 14 12 11 12 11 11 12 13 12 10 8 7 6 4 3 2 1 1 3 5 5 5 6 7 8 9 8 8 8 9 10 10 10 12 14 14 14 14 15 16 18 19 18 17 15 15 15 15 16 18 19 20 20 19 19 19 18 18 18 18 17 17 17 16 16 16 16 16 16 15 15 15 14 13 12 11 9 8 7 7 6 6 6
18 19 18 17 15 14 13 12 11 11 11 10 9 9 8 8 7 5 5 5 3 1 2 4 5 4 4 6 7 8 9 9 9 10 11 11 10 10 11 12 12 12 13 15 16 17 17 15 15 15 15 15 16 18 19 19 19 19 19 18 18 17 17 17 17 16 16 16 15 15 14 14 14 13 12 12 12 12 12 11 11 10 9 9 10 11 10
18 18 18 18 17 16 14 12 10 9 7 6 7 9 10 11 10 8 6 6 5 2 1 2 4 4 4 2 3 4 6 7 8 8 8 9 9 9 10 10 11 12 13 14 15 15 14 14 14 15 15 15 16 18 18 18 18 18 18 18 18 18 17 17 16 16 15 15 14 14 14 13 13 13 13 13 13 13 13 13 12 11 10 10 10 10 10
19 19 20 20 19 18 15 13 10 8 7 6 7 8 10 11 12 11 9 8 8 6 3 2 2 4 5 4 1 0 1 2 3 5 5 6 7 8 9 9 10 11 12 13 14 14 13 12 13 13 14 15 16 17 18 18 18 18 18 18 18 18 17 17 16 16 15 15 15 14 14 14 13 13 13 13 13 12 12 11 9 8 8 8 8 7 7
21 21 21 20 19 18 16 14 12 10 10 9 8 8 8 9 11 12 12 11 11 9 7 4 3 3 4 5 3 1 1 1 2 5 6 6 7 7 7 8 9 10 11 12 13 12 11 11 11 12 12 14 15 16 16 16 16 17 17 17 17 16 16 16 15 15 15 15 14 14 13 13 12 12 11 11 11 10 9 8 7 7 6 6 5 4 4
20 19 18 17 18 19 18 17 15 14 14 12 11 9 7 7 9 12 13 13 13 12 10 8 5 4 4 4 4 3 3 4 6 8 8 7 6 7 7 7 7 9 10 11 12 12 11 10 10 11 12 13 14 15 15 15 16 16 15 15 15 15 14 13 13 13 13 13 13 13 13 12 12 11 10 10 9 9 8 7 6 6 5 4 4 3 4
19 19 20 21 22 22 22 21 19 18 17 15 13 11 9 8 9 10 11 13 14 15 13 12 9 7 6 6 6 6 6 7 8 8 7 6 6 6 6 6 6 7 8 9 10 10 10 10 10 10 11 12 13 14 14 14 15 15 15 14 14 14 13 13 12 12 12 12 12 11 11 11 11 11 10 9 9 8 7 6 5 5 4 4 4 4 4
23 23 23 22 21 21 22 22 21 20 18 17 16 14 12 11 10 10 10 12 15 17 17 15 14 12 11 10 9 8 8 8 8 8 6 5 4 4 5 5 5 6 7 8 8 8 8 8 9 9 9 10 11 11 12 12 12 12 12 13 13 12 12 12 12 11 11 10 10 10 11 10 9 9 8 7 7 6 5 4 4 4 3 4 4 5 5
Wind_Direction
39 64 65 89 101 88 103 125 118 74 50 84 114 165 177 135 137 210 218 122 136 220 295 321 291 265 221 196 192 188 164 143 134 126 132 137 132 144 150 149 154 150 148 153 142 139 144 147 142 136 129 120 115 119 137 157 165 167 168 169 171 172 179 185 188 206 221 229 250 264 262 260 256 251 246 239 234 236 242 249 254 259 260 258 257 256 257
45 26 28 91 100 89 70 69 74 67 63 102 121 123 120 118 131 178 141 103 72 275 296 319 314 298 240 67 20 10 23 50 137 140 137 131 119 114 120 117 135 149 149 158 153 149 154 157 150 141 135 128 121 119 122 130 137 135 126 126 141 153 154 151 157 179 202 210 217 224 226 229 232 231 228 227 228 234 244 255 262 264 263 257 251 248 250
27 358 21 63 89 109 97 44 11 20 69 55 50 40 22 60 95 144 118 94 41 336 15 6 358 28 66 56 31 17 9 353 345 138 142 136 125 109 88 75 62 59 73 102 146 155 160 161 154 145 139 135 129 124 121 122 122 119 114 111 116 129 131 127 145 181 198 201 203 207 212 219 227 229 227 227 231 242 256 268 268 261 253 247 241 239 244
255 324 50 69 75 80 72 29 2 17 82 85 51 45 19 10 161 148 110 105 105 320 13 37 38 49 59 50 27 20 16 6 7 9 7 80 108 96 77 67 62 55 52 50 56 105 150 154 147 141 138 135 132 128 126 124 124 124 120 112 110 112 112 111 113 127 154 173 182 187 188 180 167 160 154 146 134 119 105 118 239 243 242 243 243 247 254
245 289 17 78 64 57 20 301 304 5 111 111 84 43 12 359 113 141 146 169 239 322 12 52 56 52 55 47 29 24 20 21 28 26 26 62 94 92 83 72 68 67 63 61 62 65 82 122 133 132 133 133 131 128 127 126 126 126 122 115 114 115 110 106 100 96 99 107 111 114 112 105 99 100 99 98 100 97 91 87 78 70 53 10 343 320 305
233 289 349 41 49 57 262 265 234 183 142 113 97 63 4 2 27 106 148 27 9 19 46 72 73 62 53 44 33 34 34 33 41 44 46 57 73 84 87 81 76 78 72 65 65 66 66 68 92 119 126 128 128 127 127 125 121 117 112 109 116 126 123 113 104 99 93 96 104 105 101 94 79 77 91 98 98 94 84 73 57 37 12 349 340 336 332
173 324 32 54 249 230 240 350 70 122 124 107 99 79 25 18 20 30 49 27 10 27 47 73 90 83 70 59 42 32 29 31 44 52 49 52 62 72 75 62 49 58 61 54 49 50 50 48 50 68 95 114 122 125 124 122 118 113 108 103 103 111 117 110 101 100 99 104 117 117 106 89 62 78 102 97 76 53 33 30 11 349 340 332 330 332 334
145 74 75 164 231 236 315 358 32 91 71 74 85 63 15 8 9 14 40 26 9 27 22 10 80 74 55 56 42 24 18 22 37 51 48 52 62 70 85 90 76 58 54 52 51 48 40 37 41 40 37 58 96 113 117 116 112 110 107 100 96 94 94 93 92 90 88 85 79 63 33 352 350 71 89 48 21 359 354 355 346 337 333 330 332 336 337
147 128 120 160 204 221 234 307 334 114 306 309 109 99 12 349 2 6 46 34 17 23 8 333 324 344 28 47 27 5 5 8 22 43 42 50 64 68 93 119 126 105 79 93 106 103 51 28 39 32 22 27 34 42 71 93 97 104 106 98 91 83 77 78 80 80 81 78 71 61 46 35 30 30 30 22 15 2 342 331 329 330 331 334 338 339 335
115 104 104 106 142 208 226 257 282 274 263 257 170 113 65 338 4 9 93 66 29 21 13 347 334 9 49 47 355 337 351 352 2 25 23 26 36 39 41 65 112 129 145 166 158 147 156 140 93 17 360 16 9 354 355 21 37 47 69 83 84 70 59 65 70 67 68 66 61 48 30 22 10 351 344 338 331 326 318 318 321 322 325 333 340 343 340
117 121 142 169 179 218 241 253 277 297 277 239 105 82 68 326 358 345 107 85 55 42 28 8 31 74 70 37 307 318 336 335 346 12 13 16 24 26 25 26 31 60 89 114 118 117 144 168 189 221 237 254 278 280 280 299 325 333 328 325 341 356 354 343 30 35 39 41 41 38 27 17 358 329 316 316 322 322 322 326 331 332 338 345 346 343 337
115 126 137 159 174 232 269 269 288 308 295 149 102 103 230 208 1 312 111 93 73 64 46 25 49 83 123 200 276 308 323 329 346 6 8 9 14 19 24 27 25 27 29 28 31 27 357 327 298 253 239 244 250 249 252 262 271 273 270 268 271 278 269 251 241 242 221 104 44 43 40 38 40 18 319 323 330 332 336 339 340 341 342 339 333 326 315
60 94 103 92 187 263 308 304 302 308 308 118 126 204 218 156 119 215 114 105 99 78 70 65 66 89 215 233 290 314 332 339 349 5 13 15 13 16 25 28 24 23 23 21 19 14 7 2 352 316 266 256 255 255 255 253 247 244 243 241 242 247 246 236 229 228 227 226 235 308 20 20 308 276 283 299 310 317 324 325 324 324 320 315 313 306 289
29 78 107 105 184 311 322 308 297 307 86 165 192 212 188 134 142 173 112 106 120 90 79 105 154 275 294 306 314 323 336 338 342 357 8 15 14 13 17 19 15 11 8 5 4 2 1 1 359 351 317 274 264 262 257 251 245 239 234 235 241 242 236 230 227 224 225 226 226 232 237 234 238 251 262 274 286 296 303 304 300 296 293 293 292 283 267
32 56 78 95 121 319 326 324 330 31 81 164 181 109 83 106 145 152 112 89 124 109 76 50 295 322 338 337 329 324 321 326 342 349 353 360 2 2 6 5 2 360 357 354 351 347 348 351 353 355 344 308 287 275 263 259 260 251 243 245 246 236 229 228 224 219 218 221 224 229 232 229 229 238 250 260 273 282 286 284 277 268 265 266 265 259 246
68 78 70 100 149 299 325 9 79 27 355 152 129 93 74 98 148 133 110 109 204 150 119 113 186 210 327 314 314 322 320 322 332 335 338 345 347 349 350 348 346 346 343 341 339 334 333 338 342 348 348 334 312 289 274 272 269 260 257 257 248 235 226 220 216 217 218 221 228 231 230 228 226 230 240 254 266 271 270 264 255 249 250 251 248 242 232
89 124 147 143 177 274 333 45 105 89 4 24 93 106 118 186 198 160 143 172 222 193 154 159 191 212 245 268 270 276 288 300 310 316 323 329 332 334 334 334 336 334 326 324 324 321 321 324 327 333 341 338 321 297 282 275 263 251 249 246 233 223 220 217 218 221 219 217 223 226 225 225 226 229 237 245 251 252 250 246 242 241 242 243 242 238 229
76 65 59 84 117 298 358 23 48 58 42 24 73 96 89 302 285 268 195 196 218 220 194 187 239 260 274 284 280 272 273 289 307 316 320 322 325 326 326 330 332 329 321 316 313 310 312 314 313 315 326 331 326 314 296 275 253 235 227 222 213 209 213 217 218 218 214 213 216 218 218 221 224 229 235 239 241 242 241 239 239 239 238 237 236 234 230
93 75 36 109 124 177 323 36 22 23 21 7 41 83 75 300 291 274 245 228 228 247 305 301 263 270 282 290 293 297 297 295 306 313 315 317 322 326 328 332 334 331 326 321 315 311 310 310 308 305 301 304 311 315 310 289 259 239 230 223 216 213 215 217 218 218 221 224 223 222 223 224 226 229 233 236 237 237 236 235 234 233 233 231 229 230 230
103 192 243 261 249 255 241 139 108 56 28 24 26 39 29 341 321 275 248 229 216 233 267 238 225 253 270 260 262 282 285 272 279 290 295 302 312 320 323 325 327 325 322 318 313 309 307 309 308 302 293 288 289 293 295 291 280 269 262 254 245 238 232 229 230 232 234 235 234 231 230 228 229 231 232 234 235 235 236 237 235 233 232 230 232 236 234
41 315 305 339 327 286 299 353 17 237 188 112 27 1 7 16 345 316 297 262 227 221 244 242 224 240 264 258 251 263 270 273 283 295 305 311 314 318 319 319 318 314 311 309 308 305 305 308 305 296 290 287 285 284 285 283 277 269 265 263 260 255 250 246 243 240 237 236 235 234 231 230 231 233 233 234 235 237 239 240 241 242 242 241 245 246 240
68 249 244 174 153 246 279 294 291 263 232 151 48 348 335 319 294 284 286 287 280 277 289 276 222 232 272 289 286 278 286 308 320 328 334 332 328 327 327 325 320 314 307 304 303 301 302 304 301 295 289 284 281 279 278 275 269 263 260 260 258 255 251 247 243 237 232 231 231 231 231 232 231 231 232 233 234 236 237 238 241 245 247 251 254 251 244
212 228 219 177 147 224 257 251 250 255 237 187 205 268 260 256 261 246 232 255 278 292 354 47 69 59 330 343 346 327 319 329 334 335 335 332 327 325 325 323 320 315 309 306 304 303 304 305 304 302 296 287 278 274 270 267 263 257 254 253 252 250 247 242 236 232 229 229 229 228 230 232 232 233 235 237 238 240 241 242 243 246 248 250 249 246 245
213 235 213 180 165 221 245 238 236 240 224 209 234 258 251 256 270 255 219 214 231 245 28 41 46 42 22 10 2 341 323 325 327 325 323 322 319 317 316 315 312 307 303 301 300 301 303 303 303 304 302 296 287 279 271 263 257 254 250 247 244 243 240 235 232 229 229 229 229 230 232 233 235 238 239 240 242 245 249 251 250 249 248 247 243 240 240
170 204 199 182 186 220 245 254 243 250 259 243 250 277 290 294 303 330 120 98 77 74 60 30 23 21 9 355 345 332 318 315 317 316 315 314 313 313 312 310 307 304 300 297 295 297 298 298 299 300 299 295 296 297 288 273 259 252 248 243 241 239 236 233 229 227 228 230 233 237 240 242 241 242 241 242 243 245 251 257 255 247 241 239 238 232 223
159 170 155 65 290 260 310 343 326 320 333 334 308 311 344 31 77 91 92 88 78 67 54 25 7 1 350 338 333 325 314 310 311 311 310 308 309 308 307 305 305 303 300 297 295 294 295 295 295 296 294 290 291 302 305 291 271 258 252 247 244 242 239 234 230 229 233 238 244 247 248 247 246 244 244 244 244 240 238 240 236 225 215 209 213 216 209
204 163 107 6 322 315 328 312 270 302 329 343 1 21 49 80 95 95 90 90 79 51 36 20 0 349 336 326 321 315 308 306 307 307 307 305 304 305 304 303 302 300 297 296 294 293 293 293 293 293 289 284 284 295 304 299 281 266 260 254 248 243 239 234 235 240 245 247 248 248 247 246 246 245 244 242 236 228 222 214 193 176 170 173 181 191 191
273 264 146 193 250 258 263 268 284 330 350 15 55 69 74 82 84 84 86 72 31 32 25 1 346 337 327 321 320 316 311 308 307 305 304 303 303 305 306 303 300 298 295 291 289 288 288 287 287 286 283 278 277 285 295 296 281 264 255 249 242 237 236 237 240 244 244 242 240 243 247 249 247 243 238 232 223 214 207 195 173 156 150 154 161 167 171
259 290 346 204 222 216 204 9 10 2 358 42 75 73 73 76 71 66 25 348 3 18 359 333 326 325 324 322 321 317 311 307 305 303 301 302 306 308 308 304 300 296 291 286 284 284 283 281 279 278 277 275 274 276 285 291 281 262 251 245 238 233 234 235 231 226 224 226 232 241 247 243 234 225 217 211 204 195 183 170 156 146 143 147 151 152 156
258 291 329 353 46 93 106 68 11 340 307 259 99 84 86 113 133 120 350 347 347 333 315 312 314 318 320 317 314 310 305 303 302 302 302 305 309 309 307 304 299 292 286 281 279 278 276 274 273 272 275 277 275 268 270 280 277 257 245 240 236 231 225 214 203 201 204 204 204 203 200 195 190 184 176 173 172 168 160 152 145 140 141 144 146 146 146
243 315 339 49 54 93 145 216 330 325 300 234 131 166 186 185 174 190 268 289 293 295 298 301 303 304 307 312 315 314 310 305 304 306 308 309 309 308 307 302 293 285 282 280 277 275 272 270 269 269 273 280 277 262 255 267 270 250 236 232 224 211 199 189 184 184 178 167 159 156 152 149 148 147 143 141 141 141 140 138 137 137 138 139 140 142 144
133 341 349 339 315 278 221 252 338 358 131 161 236 218 203 248 234 221 241 259 271 281 286 287 286 287 298 314 321 319 316 312 309 309 309 310 309 309 308 303 294 287 283 279 277 275 271 267 266 267 270 277 276 257 246 257 262 241 228 222 203 184 178 175 168 161 153 149 145 140 136 133 129 126 125 124 126 130 131 131 133 136 138 137 138 141 145
169 297 307 287 261 262 255 279 339 233 185 201 225 195 160 209 229 231 245 261 272 278 278 279 281 283 290 309 319 320 319 316 310 307 310 313 315 315 316 314 308 301 294 288 284 279 271 266 266 267 267 271 271 254 238 243 240 221 211 202 182 169 165 160 154 148 144 143 142 139 136 132 123 117 117 121 127 130 131 131 133 137 140 143 145 148 153
210 234 236 215 204 219 222 219 243 227 176 159 177 178 188 217 233 244 257 266 274 279 281 283 288 287 284 298 320 327 326 321 314 312 314 317 319 322 324 325 322 317 312 305 296 287 278 270 264 261 261 262 258 239 218 218 217 205 193 181 171 165 159 154 151 148 143 142 142 140 137 135 133 134 135 134 135 137 136 134 136 137 138 142 150 156 164
201 182 179 188 189 192 192 191 197 193 176 165 199 207 220 237 245 255 267 271 277 287 292 296 300 295 283 291 326 337 332 323 317 314 316 321 326 329 330 332 332 330 328 328 327 318 300 277 258 252 251 246 228 205 196 201 200 189 177 169 165 160 153 150 149 146 143 146 151 153 155 157 164 172 167 151 145 146 144 140 141 142 139 144 164 179 191
157 136 148 191 203 193 186 190 193 189 183 193 238 241 244 250 254 265 274 278 286 297 302 307 313 306 281 284 341 346 332 323 320 320 323 330 335 334 334 338 342 343 344 351 359 360 345 286 239 225 221 210 191 181 185 188 183 173 165 160 154 147 144 145 145 141 140 146 155 164 172 173 171 174 178 176 175 177 173 166 162 162 162 168 180 185 183
174 174 184 204 210 195 191 196 199 202 206 217 235 242 250 259 266 277 284 288 297 305 307 312 321 320 285 265 352 351 339 333 335 336 337 342 344 344 347 354 358 359 357 357 4 18 41 84 119 135 153 162 162 167 175 172 164 157 154 152 149 146 145 146 145 141 137 134 137 148 157 157 152 157 169 174 176 181 183 180 172 163 159 158 158 158 157
185 187 195 209 214 213 214 210 208 218 229 239 243 248 257 269 278 286 293 298 305 311 310 313 324 325 294 271 359 356 350 348 350 351 354 356 357 356 358 4 5 3 358 360 14 39 68 93 107 117 131 144 150 155 157 154 148 146 147 151 155 155 153 152 150 144 137 136 143 150 154 154 151 149 147 146 149 156 163 165 160 154 149 146 145 145 146
185 194 208 218 219 225 234 237 237 241 247 254 260 262 266 274 282 292 300 307 313 316 313 317 326 322 292 282 0 359 355 357 2 5 6 8 7 8 14 19 19 16 15 23 41 60 78 96 109 115 123 132 139 141 142 142 144 146 148 151 155 156 156 156 154 144 137 142 148 149 148 148 145 140 136 135 137 140 144 146 145 144 142 140 140 140 140
194 205 215 219 222 234 245 249 251 250 249 254 262 268 273 283 293 300 307 313 318 320 329 339 336 323 296 269 3 12 8 10 16 19 18 15 15 20 25 26 27 29 35 44 56 69 82 95 104 110 117 127 133 135 136 140 145 147 147 146 148 151 153 153 149 142 138 140 142 141 138 137 136 134 132 132 132 132 134 136 137 137 137 136 136 137 137
205 213 217 219 226 240 250 254 254 254 253 258 263 267 275 290 298 300 307 320 325 206 101 19 355 332 306 257 246 18 17 19 26 30 28 22 20 24 26 23 25 35 45 53 61 72 83 90 97 104 114 126 134 136 139 144 147 146 143 141 142 144 145 144 141 139 139 139 139 137 135 133 132 132 132 131 130 130 131 132 132 133 134 134 134 135 138
212 217 219 223 231 241 249 253 255 259 262 265 265 267 278 293 297 291 297 336 259 190 150 75 49 2 338 210 199 39 34 35 36 38 38 33 29 28 25 24 31 43 53 59 64 71 79 85 92 99 109 124 137 146 150 152 150 146 141 137 136 138 138 138 138 139 139 138 135 134 135 135 134 132 131 130 130 130 131 131 130 130 132 133 134 137 140
217 219 222 226 231 237 245 252 255 258 264 268 269 274 284 290 282 257 271 341 217 188 168 124 109 106 108 131 138 102 71 56 46 45 48 49 47 45 43 42 46 51 56 61 65 70 74 80 88 96 103 114 128 142 149 149 146 142 138 136 135 135 134 133 133 134 134 132 129 130 132 134 134 132 131 130 129 130 132 133 131 131 132 135 137 141 147
215 217 221 226 230 235 243 249 251 254 263 271 278 284 283 271 244 231 266 325 284 195 185 159 129 113 108 108 104 92 78 66 58 55 54 52 50 50 53 56 58 58 59 62 67 71 73 77 85 96 103 110 119 128 133 135 136 136 134 133 133 132 130 128 128 129 128 127 127 128 130 132 132 132 132 130 130 131 131 130 129 129 130 131 134 139 151
215 217 221 226 229 232 237 243 248 258 271 279 283 281 267 241 223 229 261 281 283 235 207 189 160 129 113 106 99 91 83 75 71 69 64 54 43 42 50 58 64 64 64 66 70 73 76 78 82 89 99 108 114 118 122 124 126 128 128 128 128 127 125 124 125 125 126 125 125 126 128 129 129 130 129 128 128 127 124 120 118 117 115 112 112 111 113
219 221 222 223 226 230 236 243 253 267 281 285 278 265 248 229 218 227 246 252 261 281 236 216 206 176 136 115 105 102 98 89 79 75 75 72 65 56 56 61 66 69 70 71 72 75 78 81 81 85 92 100 106 111 114 117 119 121 121 121 120 119 119 119 120 121 122 123 123 124 125 125 125 124 124 124 123 121 117 113 111 110 109 109 112 112 113
223 222 221 221 225 230 235 241 250 260 271 272 262 254 243 230 222 225 233 235 238 245 239 227 227 218 197 154 108 108 112 105 94 87 84 82 79 73 66 65 68 73 76 77 77 78 79 82 83 86 91 95 100 105 109 111 113 115 114 114 114 114 114 115 116 117 118 119 119 119 119 119 119 119 120 120 121 121 119 116 115 115 115 117 118 118 118
223 222 222 223 224 227 229 231 233 239 249 258 263 261 251 238 232 231 226 221 221 223 216 215 236 233 226 224 226 135 125 107 95 95 97 93 86 79 73 71 73 78 81 83 84 83 83 84 86 88 92 96 101 106 109 111 113 114 114 114 114 114 114 114 115 116 117 117 117 116 116 116 117 119 119 118 120 121 120 118 120 123 122 120 120 119 116
226 226 225 223 221 221 221 219 221 230 242 251 258 263 262 252 244 238 230 221 217 215 211 210 219 224 221 223 228 233 235 215 148 122 110 98 85 80 77 76 76 78 82 85 85 85 86 88 89 91 94 97 101 106 110 112 114 115 115 115 116 116 116 116 118 119 120 121 120 120 121 122 125 125 124 121 122 124 122 121 124 126 119 112 112 115 112
228 226 223 219 217 217 216 216 221 230 238 244 252 263 272 265 248 241 236 227 218 213 210 211 214 214 205 198 186 155 133 136 135 128 117 101 88 83 83 81 80 80 82 85 86 86 88 90 93 95 97 100 103 106 109 111 112 114 115 116 118 119 121 123 126 128 129 129 128 128 130 132 133 132 131 130 130 130 129 127 126 123 112 99 93 96 101
225 221 219 220 221 221 221 224 228 234 239 242 247 255 265 267 261 255 247 232 220 212 207 204 205 209 204 187 170 156 144 137 135 134 129 114 97 88 84 84 86 88 88 89 90 89 88 89 93 97 100 103 106 108 111 112 112 112 113 115 118 121 125 128 131 133 135 136 135 134 133 133 133 132 132 132 131 129 128 127 124 115 97 77 75 85 92
225 224 223 224 224 225 228 231 235 237 239 241 242 245 254 261 263 260 251 237 225 219 212 207 207 210 208 196 183 174 166 155 151 152 153 146 130 108 94 91 95 99 97 97 97 96 93 92 94 98 105 110 112 112 114 116 116 114 113 114 116 120 124 127 130 132 133 133 133 132 130 130 130 129 127 124 120 116 116 116 114 101 72 57 71 88 95